Location: Tel Aviv
(32.0670°N, 34.7670°E)
Time: 02:24:53
(UTC+02:00)

Transit 4A - Pass Details

Date: 15 December 2023
Orbit: 869 x 974 km, 66.8° (Epoch: 23 February)

Event Time Altitude Azimuth Distance (km) Brightness Sun altitude
Rises 17:58:44 0° 236° (SW) 3,657 12.5 -16.7°
Reaches altitude 10° 18:01:42 10° 248° (WSW) 2,713 11.6 -17.3°
Maximum altitude 18:07:00 27° 304° (NW) 1,758 9.7 -18.3°
Drops below altitude 10° 18:12:17 10° 1° (N) 2,697 10.1 -19.4°
Enters shadow 18:14:21 - 11° (N) 3,338 10.5 -19.8°
